Regional Weather Roundup
Issued by NWS Jackson, KY

Home | Current Version | Previous Version | Text Only | Print | Product List | Glossary On
Versions: 1 2 3 4 5 6 7 8 9 10 11 12 13 14 15 16 17 18 19 20 21 22 23 24 25 26 27 28 29 30 31 32 33 34 35 36 37 38 39 40 41 42 43 44 45 46 47 48 49 50
000
ASUS43 KJKL 011019
RWRJKL

EAST KENTUCKY HOURLY WEATHER ROUNDUP
NATIONAL WEATHER SERVICE JACKSON KY
600 AM EDT FRI AUG 01 2014

NOTE: "FAIR" INDICATES FEW OR NO CLOUDS BELOW 12,000 FEET WITH
NO SIGNIFICANT WEATHER AND/OR OBSTRUCTIONS TO VISIBILITY.

* THESE REPORTS ARE NOT UNDER NWS QUALITY CONTROL AND MAY NOT
  REPORT WEATHER SUCH AS PRECIPITATION AND FOG.

KYZ079-080-083-085-087-088-110-112-115-119-120-011100
...EASTERN KENTUCKY...

CITY           SKY/WX    TMP DP  RH WIND       PRES   REMARKS
JACKSON        MOCLDY    65  59  81 CALM      30.10S
LONDON         MOCLDY    64  60  87 CALM      30.10S
SOMERSET*      MOCLDY    59  59 100 CALM      30.10S
MONTICELLO*    MOCLDY    59  59 100 CALM      30.11R FOG
WILLIAMSBURG*    N/A     59  59 100 CALM      30.10
MIDDLESBORO*   CLOUDY    61  61 100 CALM      30.11S
HARLAN APT*    CLOUDY    61  61 100 MISG      30.12S VSB 1/4
BLACK MTN*       N/A     59  54  82 S2          N/A
PIKEVILLE APT* MOCLDY    63  61  94 SE3       30.11S
BIG SANDY*     PTSUNNY   64  62  95 CALM      30.11S
MOREHEAD APT*  PTSUNNY   61  59  94 CALM      30.12S
ASHLAND*       CLOUDY    61  55  82 CALM      30.09R
$$

KYZ035-036-041-042-044-050-067-078-099-011100
...CENTRAL KENTUCKY...

CITY           SKY/WX    TMP DP  RH WIND       PRES   REMARKS
MT STERLING*   CLEAR     57  57 100 CALM      30.11S
FLEMING/MASON* CLEAR     60  58  95 NE3       30.12R
DANVILLE*      CLEAR     57  55  94 CALM      30.11R
RICHMOND*      PTCLDY    59  57  94 CALM      30.10R
LEXINGTON      CLEAR     60  57  89 CALM      30.10R
FRANKFORT      CLEAR     58  57  97 N3        30.09R
$$

KYZ091>093-OHZ055-061-077-WVZ005-015-034-035-042-011100
...SOUTHERN OHIO/WEST VIRGINIA...

CITY           SKY/WX    TMP DP  RH WIND       PRES   REMARKS
COVINGTON      CLEAR     67  61  81 N3        30.10R
COLUMBUS       CLEAR     65  60  84 CALM      30.10R
DAYTON         MOCLDY    65  59  81 CALM      30.11R
WILMINGTON     PTCLDY    60  59  96 SE3       30.11R FOG
HUNTINGTON     MOCLDY    60  60 100 CALM      30.09S FOG
CHARLESTON     MOCLDY    63  62  97 CALM      30.10S FOG
PINEVILLE*     CLOUDY    62  62 100 MISG      30.20R
BECKLEY        MOCLDY    63  56  78 SE8       30.18R
BLUEFIELD      CLOUDY    65  58  78 E6        30.19S
$$

VAZ002-007-008-TNZ017-027-036-066-071-011100
...SOUTHWEST VIRGINIA/EAST TENNESSEE...

CITY           SKY/WX    TMP DP  RH WIND       PRES   REMARKS
WISE*          MOCLDY    63  54  72 CALM      30.17R
JONESVILLE*      N/A     59  59 100 CALM      30.13R
ABINGDON*      CLOUDY    67  61  81 E7        30.14S
BRISTOL        CLOUDY    66  59  78 CALM      30.11S
KNOXVILLE      MOCLDY    65  64  97 CALM      30.08R
OAK RIDGE      MOCLDY    66  63  90 CALM      30.09S
CROSSVILLE     PTCLDY    61  58  90 CALM      30.12R
NASHVILLE      PTCLDY    64  62  93 CALM      30.07R
$$

...KEY TO REMARKS...
VSB - VISIBILITY IN MILES
WCI - WIND CHILL INDEX
HX  - HEAT INDEX

$$



USA.gov is the U.S. government's official web portal to all federal, state and local government web resources and services.